Location: Aghk�ilisa
(40.0189°N, 45.0097°E)
Time: 09:37:50
(UTC+00:00)

CSL-04 Rocket - Pass Details

Date: 21 October 2019
Orbit: 805 x 861 km, 99.0° (Epoch: 11 November)

Event Time Altitude Azimuth Distance (km) Brightness Sun altitude
Rises 15:23:05 0° 162° (SSE) 3,419 6.7 -14.2°
Reaches altitude 10° 15:25:27 10° 161° (SSE) 2,483 6.0 -14.7°
Maximum altitude 15:30:59 82° 75° (ENE) 865 3.6 -15.7°
Drops below altitude 10° 15:36:29 10° 348° (NNW) 2,472 6.3 -16.8°
Sets 15:38:50 0° 348° (NNW) 3,403 7.0 -17.2°
